N4XWC Weather Reports


Display with metric or nautical units.
time (UTC)temp
F
wind
direction
speed
MPH
gust
MPH
rain 1hr
in
rain 24hr
in
rain mn
in
humidity
%
barometer
mb
20260505055943 62 213 0.0 3.0 0.00 0.00 0.00 64 1013.0
20260505055445 62 236 0.0 2.0 0.00 0.00 0.00 64 1013.0
20260505055214 62 264 3.0 3.0 0.00 0.00 0.00 65 1013.0
20260505054944 62 226 1.0 3.0 0.00 0.00 0.00 65 1013.0
20260505054444 62 237 0.0 1.0 0.00 0.00 0.00 65 1013.0
20260505054214 62 227 0.0 1.0 0.00 0.00 0.00 65 1013.0
20260505053944 62 203 1.0 2.0 0.00 0.00 0.00 65 1013.0
20260505053445 62 241 0.0 1.0 0.00 0.00 0.00 65 1013.0
20260505053214 62 198 0.0 3.0 0.00 0.00 0.00 65 1013.0
20260505052943 62 219 1.0 1.0 0.00 0.00 0.00 64 1013.0
20260505052444 62 230 1.0 2.0 0.00 0.00 0.00 65 1013.0
20260505052214 62 246 1.0 2.0 0.00 0.00 0.00 65 1013.0
20260505051943 62 237 1.0 1.0 0.00 0.00 0.00 65 1013.0
20260505051445 62 224 1.0 1.0 0.00 0.00 0.00 65 1013.1
20260505051215 62 210 0.0 2.0 0.00 0.00 0.00 65 1013.1
20260505050943 62 224 1.0 1.0 0.00 0.00 0.00 64 1013.1
20260505050444 62 239 0.0 2.0 0.00 0.00 0.00 65 1013.1
20260505050214 62 233 0.0 2.0 0.00 0.00 0.00 65 1013.1
20260505041443 62 205 0.0 1.0 0.00 0.00 0.00 65 1013.2
20260505041213 62 202 3.0 3.0 0.00 0.00 0.00 65 1013.2
20260505040943 62 248 2.0 2.0 0.00 0.00 0.00 65 1013.2
20260505040444 62 209 0.0 1.0 0.00 0.00 0.00 65 1013.2
20260505040215 62 220 1.0 1.0 0.00 0.00 0.00 65 1013.2
20260505035944 62 223 1.0 1.0 0.00 0.00 0.00 65 1013.2
20260505035444 62 227 0.0 1.0 0.00 0.00 0.00 65 1013.2
20260505035214 62 205 0.0 3.0 0.00 0.00 0.00 65 1013.2
20260505034944 62 206 0.0 1.0 0.00 0.00 0.00 65 1013.2
20260505034444 63 244 0.0 1.0 0.00 0.00 0.00 65 1013.2
20260505034214 63 227 1.0 2.0 0.00 0.00 0.00 65 1013.2
20260505033943 63 178 0.0 0.0 0.00 0.00 0.00 65 1013.2
20260505033444 63 222 0.0 0.0 0.00 0.00 0.00 65 1013.2
20260505033213 63 206 0.0 3.0 0.00 0.00 0.00 65 1013.2
20260505032943 63 226 0.0 1.0 0.00 0.00 0.00 64 1013.2
20260505032445 63 226 0.0 1.0 0.00 0.00 0.00 64 1013.2
20260505032214 64 232 0.0 1.0 0.00 0.00 0.00 64 1013.2
20260505031944 64 206 0.0 0.0 0.00 0.00 0.00 64 1013.2
20260505031443 64 216 0.0 0.0 0.00 0.00 0.00 64 1013.3
20260505031213 64 216 0.0 0.0 0.00 0.00 0.00 64 1013.3
20260505030944 64 212 0.0 1.0 0.00 0.00 0.00 63 1013.3
20260505030444 64 206 0.0 2.0 0.00 0.00 0.00 63 1013.3
20260505030214 64 192 1.0 3.0 0.00 0.00 0.00 63 1013.3
20260505025944 64 160 0.0 3.0 0.00 0.00 0.00 63 1013.3
20260505025444 65 226 0.0 2.0 0.00 0.00 0.00 63 1013.3
20260505025214 65 203 1.0 2.0 0.00 0.00 0.00 63 1013.3
20260505024943 65 212 0.0 2.0 0.00 0.00 0.00 62 1013.3
20260505024443 65 209 1.0 2.0 0.00 0.00 0.00 62 1013.3
20260505024215 65 230 2.0 2.0 0.00 0.00 0.00 62 1013.3
20260505023944 66 229 1.0 1.0 0.00 0.00 0.00 62 1013.3
20260505023443 66 254 1.0 2.0 0.00 0.00 0.00 62 1013.3
20260505023214 66 239 1.0 1.0 0.00 0.00 0.00 62 1013.3
20260505022943 66 246 1.0 1.0 0.00 0.00 0.00 61 1013.2
20260505022444 66 232 0.0 3.0 0.00 0.00 0.00 61 1013.2
20260505022215 66 244 1.0 2.0 0.00 0.00 0.00 61 1013.2
20260505021945 66 239 1.0 1.0 0.00 0.00 0.00 61 1013.2
20260505021444 66 230 1.0 2.0 0.00 0.00 0.00 61 1013.1
20260505021214 66 200 0.0 1.0 0.00 0.00 0.00 60 1013.1
20260505020943 66 191 1.0 1.0 0.00 0.00 0.00 60 1013.1
20260505020444 66 219 0.0 2.0 0.00 0.00 0.00 60 1013.1
20260505020215 66 247 1.0 2.0 0.00 0.00 0.00 60 1013.1
20260505015943 66 230 2.0 2.0 0.00 0.00 0.00 60 1012.9
20260505015444 67 253 0.0 3.0 0.00 0.00 0.00 60 1012.9
20260505015214 67 257 0.0 3.0 0.00 0.00 0.00 60 1012.9
20260505014944 67 251 0.0 2.0 0.00 0.00 0.00 60 1012.9
20260505014443 67 202 0.0 3.0 0.00 0.00 0.00 60 1012.9
20260505014214 67 247 1.0 2.0 0.00 0.00 0.00 60 1012.9
20260505013944 67 233 0.0 1.0 0.00 0.00 0.00 59 1012.9
20260505013444 67 226 1.0 1.0 0.00 0.00 0.00 59 1012.9
20260505013213 67 251 1.0 2.0 0.00 0.00 0.00 59 1012.9
20260505012944 67 237 0.0 3.0 0.00 0.00 0.00 59 1012.8
20260505012444 67 247 0.0 1.0 0.00 0.00 0.00 59 1012.8
20260505012215 67 244 1.0 2.0 0.00 0.00 0.00 59 1012.8
20260505011944 67 258 1.0 1.0 0.00 0.00 0.00 58 1012.8
20260505011443 67 243 0.0 1.0 0.00 0.00 0.00 59 1012.8
20260505011214 67 251 1.0 1.0 0.00 0.00 0.00 59 1012.8
20260505010944 67 237 1.0 1.0 0.00 0.00 0.00 59 1012.8
20260505010443 68 232 1.0 2.0 0.00 0.00 0.00 58 1012.8
20260505010213 68 233 1.0 2.0 0.00 0.00 0.00 58 1012.8
20260505005945 68 239 0.0 1.0 0.00 0.00 0.00 58 1012.7
20260505005443 68 243 0.0 1.0 0.00 0.00 0.00 58 1012.7
20260505005214 68 226 3.0 3.0 0.00 0.00 0.00 58 1012.7
20260505004943 68 240 1.0 2.0 0.00 0.00 0.00 57 1012.7
20260505004445 69 236 1.0 2.0 0.00 0.00 0.00 57 1012.6
20260505004215 69 222 0.0 1.0 0.00 0.00 0.00 57 1012.6
20260505003944 69 219 0.0 1.0 0.00 0.00 0.00 57 1012.6
20260505003443 69 227 0.0 1.0 0.00 0.00 0.00 57 1012.6
20260505003214 69 232 0.0 0.0 0.00 0.00 0.00 57 1012.6
20260505002944 69 198 0.0 1.0 0.00 0.00 0.00 57 1012.3
20260505002444 70 216 0.0 4.0 0.00 0.00 0.00 58 1012.3
20260505002213 70 198 0.0 2.0 0.00 0.00 0.00 57 1012.3
20260505001945 70 220 0.0 1.0 0.00 0.00 0.00 56 1012.3
20260505001445 70 213 1.0 1.0 0.00 0.00 0.00 57 1012.3
20260505001214 71 220 1.0 1.0 0.00 0.00 0.00 56 1012.3
20260505000944 71 210 2.0 3.0 0.00 0.00 0.00 56 1012.3
20260505000443 71 206 0.0 0.0 0.00 0.00 0.00 55 1012.3
20260505000213 72 206 0.0 1.0 0.00 0.00 0.00 54 1012.3
20260504235943 72 199 0.0 1.0 0.00 0.00 0.00 54 1012.4
20260504235445 72 206 0.0 1.0 0.00 0.00 0.00 53 1012.4
20260504235214 72 209 0.0 2.0 0.00 0.00 0.00 53 1012.4
20260504234943 72 193 2.0 2.0 0.00 0.00 0.00 52 1012.4
20260504234443 72 206 3.0 3.0 0.00 0.00 0.00 51 1012.5
20260504234214 72 229 2.0 3.0 0.00 0.00 0.00 51 1012.5
20260504233944 73 220 0.0 1.0 0.00 0.00 0.00 51 1012.5
20260504233445 73 202 0.0 1.0 0.00 0.00 0.00 50 1012.5
20260504233215 73 243 2.0 3.0 0.00 0.00 0.00 50 1012.5
20260504232944 73 233 2.0 6.0 0.00 0.00 0.00 50 1012.6
20260504232443 73 208 0.0 0.0 0.00 0.00 0.00 50 1012.6
20260504232213 73 189 1.0 1.0 0.00 0.00 0.00 49 1012.6
20260504231944 73 198 3.0 3.0 0.00 0.00 0.00 49 1012.6
20260504231444 74 191 0.0 2.0 0.00 0.00 0.00 48 1012.8
20260504231215 74 181 0.0 2.0 0.00 0.00 0.00 48 1012.8
20260504230943 74 220 0.0 5.0 0.00 0.00 0.00 49 1012.8
20260504230443 74 229 1.0 2.0 0.00 0.00 0.00 47 1012.8
20260504230214 74 205 0.0 2.0 0.00 0.00 0.00 47 1012.8
20260504225944 74 189 5.0 10.0 0.00 0.00 0.00 47 1012.8
20260504225444 74 193 3.0 3.0 0.00 0.00 0.00 48 1012.8
20260504225214 74 263 3.0 3.0 0.00 0.00 0.00 48 1012.8
20260504224944 74 168 1.0 7.0 0.00 0.00 0.00 48 1012.8
20260504224443 74 206 1.0 3.0 0.00 0.00 0.00 49 1012.8
20260504224213 74 143 1.0 5.0 0.00 0.00 0.00 49 1012.8
20260504223945 74 164 2.0 6.0 0.00 0.00 0.00 50 1012.8
20260504223444 74 230 0.0 1.0 0.00 0.00 0.00 48 1012.8
20260504223215 74 220 0.0 1.0 0.00 0.00 0.00 48 1012.8
20260504222944 74 251 1.0 3.0 0.00 0.00 0.00 48 1012.9
20260504222443 75 251 1.0 1.0 0.00 0.00 0.00 47 1012.9
20260504222213 75 181 0.0 2.0 0.00 0.00 0.00 47 1012.9
20260504221945 75 240 2.0 7.0 0.00 0.00 0.00 47 1012.9
20260504221444 75 258 6.0 7.0 0.00 0.00 0.00 48 1013.1
20260504221215 75 206 1.0 6.0 0.00 0.00 0.00 48 1013.1
20260504220943 75 261 2.0 6.0 0.00 0.00 0.00 49 1013.1
20260504220444 75 232 4.0 5.0 0.00 0.00 0.00 49 1013.1
20260504220214 75 222 3.0 5.0 0.00 0.00 0.00 48 1013.1
20260504215943 75 246 1.0 2.0 0.00 0.00 0.00 49 1013.2
20260504215443 75 208 1.0 3.0 0.00 0.00 0.00 47 1013.2
20260504215214 75 251 2.0 5.0 0.00 0.00 0.00 47 1013.2
20260504214944 75 140 1.0 5.0 0.00 0.00 0.00 48 1013.2
20260504214445 75 199 3.0 7.0 0.00 0.00 0.00 47 1013.3
20260504214215 75 233 1.0 2.0 0.00 0.00 0.00 47 1013.3
20260504213944 75 261 0.0 2.0 0.00 0.00 0.00 48 1013.3
20260504213443 75 282 2.0 7.0 0.00 0.00 0.00 47 1013.3
20260504213214 75 239 3.0 9.0 0.00 0.00 0.00 46 1013.3
20260504212945 75 212 2.0 6.0 0.00 0.00 0.00 45 1013.4
20260504212443 75 268 12.0 12.0 0.00 0.00 0.00 46 1013.4
20260504212214 76 175 2.0 4.0 0.00 0.00 0.00 46 1013.4
20260504211944 76 280 6.0 10.0 0.00 0.00 0.00 45 1013.4
20260504211443 76 246 10.0 11.0 0.00 0.00 0.00 45 1013.3
20260504211215 76 256 3.0 6.0 0.00 0.00 0.00 45 1013.3
20260504210944 76 191 3.0 9.0 0.00 0.00 0.00 47 1013.3
20260504210443 76 210 0.0 2.0 0.00 0.00 0.00 45 1013.3
20260504210213 76 244 1.0 9.0 0.00 0.00 0.00 45 1013.3
20260504205943 76 256 2.0 10.0 0.00 0.00 0.00 46 1013.3
20260504205444 76 264 7.0 8.0 0.00 0.00 0.00 46 1013.3
20260504205215 76 227 2.0 2.0 0.00 0.00 0.00 46 1013.3
20260504204943 76 193 0.0 6.0 0.00 0.00 0.00 46 1013.3
20260504204444 76 224 2.0 2.0 0.00 0.00 0.00 48 1013.4
20260504204213 76 200 1.0 5.0 0.00 0.00 0.00 46 1013.4
20260504203943 76 246 2.0 9.0 0.00 0.00 0.00 47 1013.4
20260504203445 76 243 2.0 2.0 0.00 0.00 0.00 47 1013.4
20260504203214 76 284 3.0 3.0 0.00 0.00 0.00 47 1013.4
20260504202944 76 196 4.0 6.0 0.00 0.00 0.00 46 1013.6
20260504202444 76 213 1.0 3.0 0.00 0.00 0.00 47 1013.6
20260504202213 76 229 2.0 2.0 0.00 0.00 0.00 48 1013.6
20260504201945 76 223 2.0 5.0 0.00 0.00 0.00 47 1013.6
20260504201445 76 216 4.0 9.0 0.00 0.00 0.00 48 1013.6
20260504201215 76 184 1.0 1.0 0.00 0.00 0.00 49 1013.6
20260504200943 76 244 2.0 6.0 0.00 0.00 0.00 49 1013.6
20260504200443 76 206 0.0 4.0 0.00 0.00 0.00 49 1013.6
20260504200215 76 222 2.0 3.0 0.00 0.00 0.00 49 1013.6
20260504195943 76 212 1.0 4.0 0.00 0.00 0.00 49 1013.9
20260504195444 76 192 1.0 3.0 0.00 0.00 0.00 50 1013.9
20260504195214 76 213 2.0 3.0 0.00 0.00 0.00 51 1013.9
20260504194944 76 206 0.0 2.0 0.00 0.00 0.00 49 1013.9
20260504194444 76 206 3.0 3.0 0.00 0.00 0.00 48 1014.2
20260504194214 75 195 0.0 1.0 0.00 0.00 0.00 47 1014.2
20260504193945 75 208 0.0 1.0 0.00 0.00 0.00 49 1014.2
20260504193443 75 171 0.0 1.0 0.00 0.00 0.00 50 1014.2
20260504193216 75 215 0.0 2.0 0.00 0.00 0.00 51 1014.2
20260504192944 75 169 2.0 6.0 0.00 0.00 0.00 48 1014.4
20260504192444 75 165 2.0 4.0 0.00 0.00 0.00 50 1014.4
20260504192214 75 205 0.0 6.0 0.00 0.00 0.00 52 1014.4
20260504191946 75 240 3.0 6.0 0.00 0.00 0.00 52 1014.4
20260504191445 75 205 2.0 3.0 0.00 0.00 0.00 52 1014.7
20260504191214 75 270 0.0 4.0 0.00 0.00 0.00 52 1014.7
20260504190943 75 160 2.0 5.0 0.00 0.00 0.00 55 1014.7
20260504190446 74 148 0.0 1.0 0.00 0.00 0.00 52 1014.7
20260504190215 74 216 0.0 3.0 0.00 0.00 0.00 52 1014.7
20260504185944 74 215 1.0 2.0 0.00 0.00 0.00 52 1014.8
20260504185443 74 186 3.0 6.0 0.00 0.00 0.00 53 1014.8
20260504185214 74 208 3.0 3.0 0.00 0.00 0.00 53 1014.8
20260504184943 74 209 2.0 6.0 0.00 0.00 0.00 53 1014.8
20260504184444 74 198 0.0 5.0 0.00 0.00 0.00 52 1014.9
20260504184216 74 202 3.0 3.0 0.00 0.00 0.00 53 1014.9
20260504183943 74 216 0.0 1.0 0.00 0.00 0.00 55 1014.9
20260504183444 75 160 0.0 3.0 0.00 0.00 0.00 50 1014.9
20260504183213 75 193 3.0 4.0 0.00 0.00 0.00 54 1014.9
20260504182945 75 210 2.0 3.0 0.00 0.00 0.00 51 1015.2
20260504182443 75 270 1.0 5.0 0.00 0.00 0.00 52 1015.2
20260504182216 75 250 3.0 3.0 0.00 0.00 0.00 53 1015.2
20260504181944 75 302 2.0 5.0 0.00 0.00 0.00 54 1015.2
20260504181443 75 263 4.0 4.0 0.00 0.00 0.00 53 1015.3
20260504181214 75 205 5.0 6.0 0.00 0.00 0.00 54 1015.3
20260504180944 75 155 3.0 3.0 0.00 0.00 0.00 54 1015.3
20260504180443 74 193 2.0 4.0 0.00 0.00 0.00 54 1015.3
20260504180215 74 226 0.0 1.0 0.00 0.00 0.00 54 1015.3
20260504175944 74 236 2.0 3.0 0.00 0.00 0.00 53 1015.5
20260504175443 74 253 1.0 3.0 0.00 0.00 0.00 53 1015.5
20260504175216 74 274 6.0 6.0 0.00 0.00 0.00 53 1015.5
20260504174944 74 250 2.0 8.0 0.00 0.00 0.00 52 1015.5
20260504174443 74 241 0.0 0.0 0.00 0.00 0.00 52 1015.6
20260504174214 74 241 0.0 2.0 0.00 0.00 0.00 52 1015.6
20260504173943 74 241 1.0 1.0 0.00 0.00 0.00 52 1015.6
20260504173445 74 232 4.0 6.0 0.00 0.00 0.00 52 1015.6
20260504173215 74 212 1.0 2.0 0.00 0.00 0.00 52 1015.6
20260504172944 74 264 5.0 5.0 0.00 0.00 0.00 52 1015.7
20260504172444 74 209 5.0 7.0 0.00 0.00 0.00 53 1015.7
20260504172213 74 258 0.0 2.0 0.00 0.00 0.00 52 1015.7
20260504171944 74 256 0.0 3.0 0.00 0.00 0.00 51 1015.7
20260504171444 74 237 0.0 4.0 0.00 0.00 0.00 54 1015.9
20260504171213 74 282 2.0 5.0 0.00 0.00 0.00 53 1015.9
20260504170943 74 287 1.0 2.0 0.00 0.00 0.00 51 1015.9
20260504170444 74 192 0.0 4.0 0.00 0.00 0.00 53 1015.9
20260504170215 73 268 7.0 7.0 0.00 0.00 0.00 52 1015.9
20260504160445 71 237 2.0 5.0 0.00 0.00 0.00 53 1016.9
20260504160214 71 272 4.0 4.0 0.00 0.00 0.00 54 1016.9
20260504150943 67 247 2.0 2.0 0.00 0.00 0.00 59 1017.0
20260504150444 67 254 0.0 1.0 0.00 0.00 0.00 60 1017.0
20260504150214 67 223 1.0 3.0 0.00 0.00 0.00 61 1017.0
20260504141214 62 265 4.0 10.0 0.00 0.00 0.00 65 1017.4
20260504140944 62 199 2.0 5.0 0.00 0.00 0.00 65 1017.4
20260504140444 62 224 1.0 5.0 0.00 0.00 0.00 65 1017.4
20260504140213 62 219 2.0 6.0 0.00 0.00 0.00 65 1017.4
20260504130444 56 206 1.0 3.0 0.00 0.00 0.00 76 1017.8
20260504130218 56 210 0.0 2.0 0.00 0.00 0.00 77 1017.8
20260504120213 52 212 1.0 1.0 0.00 0.00 0.00 79 1017.3
20260504110444 51 179 0.0 1.0 0.00 0.00 0.00 82 1016.7
20260504110213 50 219 0.0 1.0 0.00 0.00 0.00 82 1016.7
20260504100443 49 198 0.0 1.0 0.00 0.00 0.00 89 1017.0
20260504100214 49 215 0.0 0.0 0.00 0.00 0.00 89 1017.0
20260504081945 54 243 1.0 1.0 0.00 0.00 0.00 70 1016.4
20260504081444 55 247 0.0 1.0 0.00 0.00 0.00 68 1016.5
20260504081216 55 234 0.0 1.0 0.00 0.00 0.00 68 1016.5
20260504080943 55 239 1.0 2.0 0.00 0.00 0.00 66 1016.5
20260504080443 55 217 1.0 1.0 0.00 0.00 0.00 65 1016.5
20260504080215 56 247 0.0 2.0 0.00 0.00 0.00 65 1016.5
20260504070214 55 223 2.0 3.0 0.00 0.00 0.00 66 1016.9
20260504060213 58 169 1.0 2.0 0.00 0.00 0.00 58 1017.4